• In Deutschland
  • Länderverzeichnis
  • Für 7 Tage
  • Wassertemperatur
  • Satellitenkarten
  • Wetterkarte
  • Widgets
  • user-avatar
    Anmelden

    Stündliche Wetter Rottach-Egern

    Heute, 25 Mai, Freitag

    Zeit Temperatur Niederschläge Wind Luftdruck Luftfeuchtigkeit
    00:00 +9°C° 0 mm 1 m/S 649 mmHg 94%
    01:00 +8°C° 0 mm 1 m/S 649 mmHg 93%
    02:00 +7°C° 0 mm 1 m/S 649 mmHg 93%
    03:00 +7°C° 0 mm 1 m/S 649 mmHg 93%
    04:00 +7°C° 0 mm 1 m/S 649 mmHg 93%
    05:00 +8°C° 0 mm 1 m/S 649 mmHg 90%
    06:00 +10°C° 0 mm 1 m/S 650 mmHg 87%
    07:00 +11°C° 0 mm 1 m/S 650 mmHg 84%
    08:00 +14°C° 0 mm 1 m/S 651 mmHg 73%
    09:00 +16°C° 0 mm 1 m/S 651 mmHg 63%
    10:00 +19°C° 0 mm 1 m/S 652 mmHg 53%
    11:00 +20°C° 0 mm 1 m/S 652 mmHg 50%
    12:00 +21°C° 0 mm 1 m/S 652 mmHg 47%
    13:00 +20°C° 0 mm 2 m/S 652 mmHg 45%
    14:00 +20°C° 0 mm 2 m/S 651 mmHg 48%
    15:00 +19°C° 0 mm 2 m/S 651 mmHg 51%
    16:00 +19°C° 0 mm 2 m/S 651 mmHg 54%
    17:00 +17°C° 0,2 mm 2 m/S 651 mmHg 64%
    18:00 +16°C° 0,2 mm 1 m/S 650 mmHg 75%
    19:00 +14°C° 0,2 mm 1 m/S 650 mmHg 85%
    20:00 +13°C° 0 mm 1 m/S 650 mmHg 88%
    21:00 +11°C° 0 mm 1 m/S 650 mmHg 91%
    22:00 +10°C° 0 mm 1 m/S 650 mmHg 93%
    23:00 +10°C° 0 mm 1 m/S 650 mmHg 93%

    Morgen, 26 Mai, Samstag

    Zeit Temperatur Niederschläge Wind Luftdruck Luftfeuchtigkeit
    00:00 +9°C° 0 mm 1 m/S 650 mmHg 92%
    01:00 +9°C° 0 mm 1 m/S 650 mmHg 92%
    02:00 +9°C° 0 mm 1 m/S 650 mmHg 92%
    03:00 +8°C° 0 mm 1 m/S 650 mmHg 91%
    04:00 +8°C° 0 mm 1 m/S 650 mmHg 91%
    05:00 +10°C° 0 mm 1 m/S 650 mmHg 87%
    06:00 +12°C° 0 mm 1 m/S 651 mmHg 82%
    07:00 +13°C° 0 mm 1 m/S 652 mmHg 78%
    08:00 +16°C° 0 mm 1 m/S 652 mmHg 68%
    09:00 +19°C° 0 mm 1 m/S 653 mmHg 59%
    10:00 +21°C° 0 mm 1 m/S 654 mmHg 50%
    11:00 +22°C° 0 mm 1 m/S 654 mmHg 48%
    12:00 +21°C° 0 mm 2 m/S 654 mmHg 46%
    13:00 +23°C° 0 mm 2 m/S 654 mmHg 44%
    14:00 +23°C° 0,1 mm 2 m/S 653 mmHg 46%
    15:00 +21°C° 0,1 mm 2 m/S 653 mmHg 48%
    16:00 +21°C° 0,1 mm 2 m/S 653 mmHg 51%
    17:00 +19°C° 0,3 mm 2 m/S 653 mmHg 61%
    18:00 +19°C° 0,3 mm 1 m/S 652 mmHg 71%
    19:00 +16°C° 0,3 mm 1 m/S 652 mmHg 81%
    20:00 +15°C° 0,4 mm 1 m/S 652 mmHg 83%
    21:00 +13°C° 0,4 mm 1 m/S 651 mmHg 86%
    22:00 +12°C° 0,4 mm 1 m/S 651 mmHg 89%
    23:00 +11°C° 0 mm 1 m/S 651 mmHg 89%

    übermorgen, 27 Mai, Sonntag

    Zeit Temperatur Niederschläge Wind Luftdruck Luftfeuchtigkeit
    00:00 +11°C° 0 mm 1 m/S 651 mmHg 90%
    01:00 +10°C° 0 mm 1 m/S 650 mmHg 90%
    02:00 +10°C° 0 mm 1 m/S 650 mmHg 90%
    03:00 +10°C° 0 mm 1 m/S 650 mmHg 89%
    04:00 +9°C° 0 mm 1 m/S 650 mmHg 89%
    05:00 +11°C° 0 mm 1 m/S 650 mmHg 85%
    06:00 +13°C° 0 mm 1 m/S 651 mmHg 80%
    07:00 +14°C° 0 mm 1 m/S 651 mmHg 76%
    08:00 +16°C° 0 mm 1 m/S 652 mmHg 68%
    09:00 +20°C° 0 mm 1 m/S 652 mmHg 59%
    10:00 +22°C° 0 mm 1 m/S 653 mmHg 51%
    11:00 +23°C° 0 mm 2 m/S 653 mmHg 49%
    12:00 +23°C° 0 mm 2 m/S 653 mmHg 48%
    13:00 +24°C° 0 mm 2 m/S 653 mmHg 46%
    14:00 +24°C° 0,1 mm 2 m/S 652 mmHg 48%
    15:00 +23°C° 0,1 mm 2 m/S 652 mmHg 51%
    16:00 +23°C° 0,1 mm 2 m/S 652 mmHg 53%
    17:00 +20°C° 0,7 mm 2 m/S 651 mmHg 62%
    18:00 +20°C° 0,7 mm 1 m/S 651 mmHg 71%
    19:00 +18°C° 0,7 mm 1 m/S 651 mmHg 80%
    20:00 +16°C° 0,4 mm 1 m/S 651 mmHg 83%
    21:00 +15°C° 0,4 mm 1 m/S 651 mmHg 86%
    22:00 +13°C° 0,4 mm 1 m/S 650 mmHg 88%
    23:00 +13°C° 0,4 mm 1 m/S 650 mmHg 88%

    28 Mai, Montag

    Zeit Temperatur Niederschläge Wind Luftdruck Luftfeuchtigkeit
    00:00 +12°C° 0,4 mm 1 m/S 650 mmHg 89%
    01:00 +12°C° 0,4 mm 1 m/S 650 mmHg 89%
    02:00 +11°C° 0 mm 1 m/S 650 mmHg 88%
    03:00 +11°C° 0 mm 1 m/S 649 mmHg 88%
    04:00 +10°C° 0 mm 1 m/S 649 mmHg 88%
    05:00 +12°C° 0 mm 1 m/S 650 mmHg 83%
    06:00 +13°C° 0 mm 1 m/S 650 mmHg 79%
    07:00 +15°C° 0 mm 1 m/S 651 mmHg 75%
    08:00 +18°C° 0 mm 1 m/S 651 mmHg 67%
    09:00 +20°C° 0 mm 1 m/S 652 mmHg 59%
    10:00 +22°C° 0 mm 1 m/S 653 mmHg 51%
    11:00 +23°C° 0 mm 1 m/S 652 mmHg 50%
    12:00 +24°C° 0 mm 2 m/S 652 mmHg 48%
    13:00 +24°C° 0 mm 2 m/S 652 mmHg 47%
    14:00 +23°C° 0,5 mm 2 m/S 652 mmHg 52%
    15:00 +23°C° 0,5 mm 2 m/S 651 mmHg 57%
    16:00 +21°C° 0,5 mm 2 m/S 651 mmHg 62%
    17:00 +20°C° 1,4 mm 2 m/S 651 mmHg 70%
    18:00 +19°C° 1,4 mm 1 m/S 650 mmHg 77%
    19:00 +18°C° 1,4 mm 1 m/S 650 mmHg 84%
    20:00 +16°C° 0,1 mm 1 m/S 650 mmHg 85%
    21:00 +15°C° 0,1 mm 1 m/S 649 mmHg 87%
    22:00 +14°C° 0,1 mm 1 m/S 649 mmHg 88%
    23:00 +13°C° 0 mm 2 m/S 649 mmHg 89%

    29 Mai, Dienstag

    Zeit Temperatur Niederschläge Wind Luftdruck Luftfeuchtigkeit
    00:00 +13°C° 0 mm 2 m/S 649 mmHg 89%
    01:00 +12°C° 0 mm 2 m/S 649 mmHg 89%
    02:00 +12°C° 0 mm 2 m/S 649 mmHg 89%
    03:00 +10°C° 0 mm 2 m/S 648 mmHg 89%
    04:00 +10°C° 0 mm 2 m/S 648 mmHg 89%
    05:00 +12°C° 0 mm 2 m/S 648 mmHg 84%
    06:00 +14°C° 0 mm 1 m/S 649 mmHg 80%
    07:00 +15°C° 0 mm 1 m/S 649 mmHg 76%
    08:00 +19°C° 0 mm 1 m/S 650 mmHg 66%
    09:00 +21°C° 0 mm 1 m/S 651 mmHg 56%
    10:00 +24°C° 0 mm 1 m/S 651 mmHg 47%
    11:00 +25°C° 0 mm 1 m/S 651 mmHg 45%
    12:00 +25°C° 0 mm 1 m/S 651 mmHg 43%
    13:00 +26°C° 0 mm 2 m/S 651 mmHg 41%
    14:00 +25°C° 0,1 mm 2 m/S 650 mmHg 44%
    15:00 +25°C° 0,1 mm 2 m/S 650 mmHg 47%
    16:00 +24°C° 0,1 mm 2 m/S 649 mmHg 49%
    17:00 +23°C° 0,3 mm 2 m/S 649 mmHg 59%
    18:00 +20°C° 0,3 mm 2 m/S 649 mmHg 68%
    19:00 +20°C° 0,3 mm 1 m/S 648 mmHg 77%
    20:00 +19°C° 1,1 mm 1 m/S 648 mmHg 80%
    21:00 +16°C° 1,1 mm 1 m/S 648 mmHg 82%
    22:00 +15°C° 1,1 mm 2 m/S 648 mmHg 85%
    23:00 +14°C° 0,2 mm 2 m/S 648 mmHg 86%

    30 Mai, Mittwoch

    Zeit Temperatur Niederschläge Wind Luftdruck Luftfeuchtigkeit
    00:00 +14°C° 0,2 mm 2 m/S 648 mmHg 86%
    01:00 +13°C° 0,2 mm 2 m/S 647 mmHg 87%
    02:00 +13°C° 0 mm 2 m/S 647 mmHg 87%
    03:00 +13°C° 0 mm 2 m/S 647 mmHg 87%
    04:00 +12°C° 0 mm 2 m/S 647 mmHg 87%
    05:00 +13°C° 0 mm 2 m/S 647 mmHg 83%
    06:00 +15°C° 0 mm 1 m/S 648 mmHg 79%
    07:00 +16°C° 0 mm 1 m/S 648 mmHg 76%
    08:00 +19°C° 0 mm 1 m/S 649 mmHg 67%
    09:00 +22°C° 0 mm 1 m/S 649 mmHg 58%
    10:00 +24°C° 0 mm 1 m/S 650 mmHg 49%
    11:00 +25°C° 0,1 mm 1 m/S 650 mmHg 47%
    12:00 +25°C° 0,1 mm 2 m/S 650 mmHg 45%
    13:00 +26°C° 0,1 mm 2 m/S 650 mmHg 43%
    14:00 +25°C° 0,3 mm 2 m/S 649 mmHg 48%
    15:00 +24°C° 0,3 mm 2 m/S 649 mmHg 52%
    16:00 +24°C° 0,3 mm 2 m/S 648 mmHg 57%
    17:00 +21°C° 1,9 mm 2 m/S 648 mmHg 66%
    18:00 +19°C° 1,9 mm 2 m/S 648 mmHg 75%
    19:00 +19°C° 1,9 mm 1 m/S 648 mmHg 83%
    20:00 +18°C° 0,9 mm 1 m/S 648 mmHg 85%
    21:00 +16°C° 0,9 mm 1 m/S 648 mmHg 86%
    22:00 +15°C° 0,9 mm 1 m/S 648 mmHg 88%
    23:00 +14°C° 0,3 mm 1 m/S 648 mmHg 88%
    Mehr zeigen